Showing default

GONETS M 14 (M24), 44905

Orbit data source: Space-Track

GONETS M 14 (M24), 44905 is a payload satellite owned by Gonets (CIS) in LEO that was launched on Thu, 26 Dec 2019 UTC via an ROKOT launch vehicle from the Plesetsk Missile And Space Complex (PKMTR). Payload-class satellites include a variety of spacecraft equipped with specific instruments for various scientific and technological missions. These include communications satellites like Starlink; space stations such as the ISS; scientific satellites like the Hubble; Earth observation satellites from companies like Planet Labs, Umbra, and HawkEye 360; GPS; miniature CubeSats for education and research; and military/defense satellites.

Loading next visibility...
Identifier
44905, 2019-096A
Orbit
LEO
Last TLE update
7 hours ago
Origin
Manufacturer
Resehetnev ISS
Mission
Operational Commercial Communications
Bus & Motor
STRELA-3M, Unknown motor
Mass
225 kg wet, 225 kg dry
Launch date (UTC)
2019-12-26 (5 years ago)
Launch vehicle
ROKOT
Launch site
Plesetsk Missile And Space Complex (PKMTR)
Object type
Payload
Rocket body
Debris
Shape & HBR
Cyl + 1 Ant, 7 m
Radar Cross Section
1.798 m², Large (>1 m²)

Expand to show TLE details & history

TLE from 7 hours ago
0 GONETS M 14 (M24)
1 44905U 19096A   25128.95259352  .00000050  00000-0  28784-3 0  9992
2 44905  82.5237 335.2404 0013176 318.5891  41.4189 12.42892476243466
Epoch: 2025-05-08T22:51Z
Definitive object data (Epoch: 2025-05-08T22:51:44.08Z)
Latitude
-0.00001°
Longitude
125.29103°
Altitude
1,489.292 km
Speed
7.123 km/s
True Right ascension
22h 20m 57s
True Declination
0° 00' 00"
Sunlit
Object was in daylight at TLE epoch
Visualization TLE readout
Latitude
-51.63935°
Longitude
-45.39373°
Altitude
1,513.57 km
Speed
7.108 km/s
Apparent Right ascension
06h 30m 59s
Apparent Declination
-69° 24' 24"
Sunlit
Object is in daylight
Visualization observer readout
Local Sidereal Time
14:02:59
Azimuth
207.208° SW
Elevation
-44.915°
Doppler factor
1
Orbital elements
Apogee altitude
1,502.085 km
Perigee altitude
1,481.346 km
Semi-major axis
7,869.853 km
Eccentricity
0.0013176
Inclination
82.5237°
RAAN
335.2404°
Arg. of periapsis
318.5891°
True anomaly
41.51891°
Mean anomaly
41.4189°
Eccentric anomaly
41.46889°
Mean motion
3.1088 °/min
BSTAR
0.00028784
Orbital period
115.8 mins
Loading maneuver chart data...
Loading SW <> Apogee altitude chart data...
Loading historical data...
Loading historical data...
Loading historical data...
Loading historical data...
Loading historical data...
Loading historical data...
Loading historical data...
Other satellites on launch #96 in the year 2019 (2019-12-26 UTC)

GONETS M 14 (M24) Visibility forecast

Observer location: undefined°, undefined°

Span
Click to sort rows by Start time (UTC) header in descending order
Start Az.
Max El. time (UTC)
Max El. Az.
Max El.
End time (UTC)
End Az.
9 mins2025-05-09 12:32:14.402Z107.983° ESE2025-05-09 12:36:14.402Z79.038° E15.683°2025-05-09 12:41:14.402Z43.088° NE
15 mins2025-05-09 14:25:14.402Z183.744° SSW2025-05-09 14:32:14.402Z34.688° NE44.896°2025-05-09 14:40:14.402Z8.355° NNE
10 mins2025-05-09 16:25:14.402Z260.307° W2025-05-09 16:30:14.402Z298.94° NW18.141°2025-05-09 16:35:14.402Z336.16° NNW
14 mins2025-05-10 00:36:14.402Z9.832° NNE2025-05-10 00:43:14.402Z79.502° E34.022°2025-05-10 00:50:14.402Z140.535° SSE
14 mins2025-05-10 02:33:14.402Z333.612° NNW2025-05-10 02:39:14.402Z279.144° WNW33.359°2025-05-10 02:47:14.402Z208.299° SW
|